[[{"header":{"parameterUnit":"m.s-1","parameterCategory":1,"la1":30.2991,"la2":30.254,"lo1":-89.0895,"lo2":-89.0444,"dy":0.0017,"dx":0.0017,"nx":28,"ny":28,"refTime":"2025-03-14T21:00:00:Z","depth":0,"parameterNumber":2,"parameterNumberName":"U-component_of_WINDS"},"data":[0,0,0,0,0,0,0,0,0,0,0,0,0,0,0,0,0,0,0,0,0,0,0,0,0,0,0,0,0,0,0,0,0,0,0,0,0,0,0,0,0,0,0,0,0,0,0,0,0,0,0,0,0,0,0,0,0,0,5.7661,5.7662,0,5.7719,5.772,5.772,5.7678,5.7676,5.7674,5.7673,5.7734,5.7738,5.7741,0,0,0,0,0,0,0,0,0,0,0,0,0,5.752,5.7523,5.7661,5.7662,5.7663,5.7719,5.772,5.772,5.7678,5.7676,5.7674,5.7672,5.7733,5.7737,5.7741,0,0,0,0,0,0,0,0,0,0,0,0,0,5.758,5.7524,5.7661,5.7648,5.7648,5.7719,5.772,5.7721,5.7679,5.7676,5.7673,5.7671,5.7732,5.7737,5.7742,5.7829,0,0,5.7757,5.776,0,0,0,0,0,0,0,0,5.7577,5.7585,5.765,5.7649,5.7649,5.7688,5.7692,5.7757,5.768,5.7667,5.7673,5.7669,5.7722,5.7727,5.7744,5.7832,5.7835,5.7758,5.7761,5.7763,5.7765,0,0,0,0,0,0,0,5.7572,5.7582,5.7684,5.7651,5.765,5.7642,5.7647,5.7705,5.7709,5.7668,5.7665,5.7672,5.7721,5.774,5.7745,5.7836,5.7758,5.7762,5.7765,5.7767,5.8004,5.8007,0,0,0,0,0,0,5.7569,5.7579,5.7682,5.7686,5.7605,5.7646,5.7652,5.7679,5.7709,5.7711,5.7675,5.767,5.7732,5.774,5.7748,5.7856,5.7763,5.7768,5.7771,5.8001,5.8004,5.8008,0,0,0,0,0,0,5.7566,5.7578,5.768,5.7632,5.7644,5.7652,5.7682,5.7681,5.77,5.7714,5.7715,5.7693,5.773,5.774,5.781,5.7857,5.777,5.7775,5.7997,5.8002,5.8006,5.807,0,0,0,0,0,0,5.7562,5.7578,5.7609,5.7633,5.7647,5.774,5.7684,5.7684,5.7708,5.7703,5.7731,5.7733,5.7729,5.7803,5.7815,5.7862,5.7779,5.7993,5.7999,5.8005,5.8064,5.8077,5.8087,0,0,0,0,0,5.7557,5.7624,5.7611,5.7624,5.7686,5.7743,5.7751,5.7745,5.7712,5.7746,5.7755,5.7732,5.785,5.781,5.7824,5.7873,5.799,5.7997,5.8004,5.8059,5.8074,5.8087,0,0,0,0,0,0,5.7606,5.7627,5.7613,5.7689,5.7715,5.7736,5.7777,5.776,5.7796,5.779,5.7781,5.7788,5.7862,5.7874,5.783,5.7962,5.7915,5.7925,5.7952,5.7966,5.7978,5.7974,5.7783,0,0,0,0,0,5.7626,5.7668,5.7685,5.7751,5.7765,5.7769,5.7793,5.7786,5.7813,5.7823,5.7838,5.7866,5.7909,5.7938,5.7978,5.8065,5.8073,5.8106,5.8118,5.8128,5.8137,5.8189,5.8205,5.8032,5.8032,5.8032,0,0,5.7666,5.7683,5.7711,5.7761,5.778,5.7828,5.7778,5.7828,5.7864,5.7831,5.7899,5.7911,5.7942,5.8022,5.8058,5.8034,5.8187,5.8137,5.8144,5.8149,5.8198,5.8215,5.8229,5.8037,5.8036,5.8035,0,0,5.7766,5.7781,5.784,5.7861,5.7891,5.7894,5.7908,5.7933,5.794,5.8007,5.7985,5.8028,5.8102,5.8126,5.8148,5.8262,5.8244,5.8275,5.8337,5.8388,5.8402,5.8414,5.8458,5.8474,5.8284,5.8285,5.8285,0,5.7814,5.7882,5.7873,5.7927,5.7952,5.7924,5.7986,5.8006,5.8048,5.8067,5.804,5.8136,5.8154,5.8242,5.827,5.8287,5.8306,5.8273,5.84,5.8412,5.8424,5.8466,5.8482,5.8289,5.8288,5.8288,5.8287,0,5.7941,5.799,5.8034,5.8076,5.8106,5.8163,5.8165,5.8196,5.8188,5.8195,5.8267,5.8288,5.8335,5.8355,5.8346,5.8443,5.8428,5.8401,5.8353,5.8444,5.8484,5.85,5.8294,5.8293,5.8292,5.8291,0,0,5.8072,5.8111,5.8128,5.8149,5.8181,5.8219,5.8277,5.8323,5.8352,5.8382,5.8433,5.8498,5.8475,5.85,5.8494,5.8538,5.8632,5.8506,5.8507,5.8532,5.8746,5.8768,5.8787,5.862,5.8623,5.8625,5.8744,0,5.8176,5.8276,5.8272,5.8367,5.8414,5.839,5.8441,5.8468,5.8477,5.852,5.853,5.8578,5.8541,5.8557,5.8599,5.8612,5.8676,5.8603,5.867,5.8673,5.8666,5.8807,5.883,5.8941,5.8759,5.8762,5.8764,0,5.8311,5.8348,5.8447,5.8477,5.8497,5.8542,5.8586,5.8626,5.8658,5.8662,5.8692,5.868,5.8742,5.8692,5.878,5.8731,5.8758,5.8769,5.8773,5.8781,5.8726,5.8822,5.8976,5.8995,5.8787,5.8786,5.8784,0,5.8402,5.8475,5.8546,5.8564,5.8599,5.8633,5.8649,5.8678,5.8707,5.8746,5.8766,5.8811,5.8837,5.8874,5.8876,5.8839,5.8967,5.8915,5.8974,5.8975,5.9004,5.9003,5.9168,5.9016,5.9016,5.9016,5.9015,0,5.852,5.8583,5.8588,5.8632,5.8703,5.8698,5.8769,5.8783,5.8809,5.8857,5.8839,5.8885,5.8883,5.8931,5.8933,5.9008,5.9019,5.9026,5.9027,5.903,5.903,5.9049,5.9043,5.902,5.9019,5.9018,5.9018,0,5.8634,5.8639,5.8715,5.8743,5.8752,5.8804,5.8829,5.8872,5.888,5.8941,5.8955,5.8968,5.9024,5.903,5.9093,5.9095,5.9187,5.9177,5.9177,5.9176,5.9237,5.9233,5.9423,5.945,5.9278,5.9279,5.9281,0,5.8711,5.8759,5.8793,5.8824,5.8843,5.8892,5.8923,5.8921,5.8954,5.8996,5.9035,5.9088,5.9131,5.9222,5.9238,5.9289,5.9282,5.9346,5.929,5.9293,5.9288,5.9287,5.9294,5.9357,5.9359,5.9361,5.9362,0,5.8849,5.885,5.8893,5.894,5.8977,5.9013,5.9048,5.9074,5.9077,5.9115,5.9172,5.9206,5.9272,5.9328,5.9378,5.9397,5.9382,5.9379,5.9397,5.9402,5.9401,5.9407,5.921,5.9376,5.9374,5.9373,5.9372,5.9372,5.8949,5.8993,5.9025,5.9076,5.9101,5.9135,5.9178,5.9192,5.9239,5.9293,5.9289,5.9353,5.9388,5.9454,5.9477,5.9529,5.9508,5.9531,5.9538,5.9545,5.9553,5.939,5.9537,5.9537,5.9536,5.9536,5.9536,0,5.9089,5.9109,5.9156,5.9205,5.9247,5.9227,5.9265,5.9302,5.9358,5.9391,5.9434,5.9502,5.9556,5.9578,5.9632,5.967,5.9665,5.9684,5.9683,5.9689,5.9566,5.9548,5.9688,5.9688,5.9688,5.9688,5.9688,5.9688,5.9167,5.9242,5.9247,5.9335,5.9355,5.9417,5.9441,5.9473,5.95,5.9576,5.9621,5.9635,5.9665,5.9722,5.9772,5.9777,5.98,5.9823,5.9826,5.9712,5.9697,5.9682,5.9665,5.9827,5.9828,5.9945,5.9946,5.9947]},{"header":{"parameterUnit":"m.s-1","parameterCategory":1,"la1":30.2991,"la2":30.254,"lo1":-89.0895,"lo2":-89.0444,"dy":0.0017,"dx":0.0017,"nx":28,"ny":28,"refTime":"2025-03-14T21:00:00:Z","depth":0,"parameterNumber":3,"parameterNumberName":"V-component_of_WINDS"},"data":[0,0,0,0,0,0,0,0,0,0,0,0,0,0,0,0,0,0,0,0,0,0,0,0,0,0,0,0,0,0,0,0,0,0,0,0,0,0,0,0,0,0,0,0,0,0,0,0,0,0,0,0,0,0,0,0,0,0,-1.0507,-1.0506,0,-1.038,-1.0378,-1.0377,-1.041,-1.0413,-1.0416,-1.0418,-1.0279,-1.0273,-1.0267,0,0,0,0,0,0,0,0,0,0,0,0,0,-1.0772,-1.0767,-1.0507,-1.0505,-1.0504,-1.038,-1.0378,-1.0376,-1.041,-1.0413,-1.0416,-1.0419,-1.0281,-1.0274,-1.0267,0,0,0,0,0,0,0,0,0,0,0,0,0,-1.0652,-1.0766,-1.0507,-1.0506,-1.0505,-1.038,-1.0378,-1.0376,-1.0409,-1.0413,-1.0417,-1.0421,-1.0284,-1.0275,-1.0266,-1.0133,0,0,-1.0238,-1.0234,0,0,0,0,0,0,0,0,-1.0659,-1.0642,-1.0508,-1.0506,-1.0504,-1.0415,-1.0421,-1.0294,-1.0408,-1.0445,-1.0418,-1.0423,-1.0321,-1.0309,-1.0276,-1.0126,-1.012,-1.0237,-1.0232,-1.0228,-1.0225,0,0,0,0,0,0,0,-1.0667,-1.0648,-1.0456,-1.0506,-1.0503,-1.0509,-1.0497,-1.0397,-1.0363,-1.0442,-1.0445,-1.0429,-1.032,-1.0285,-1.0273,-1.0118,-1.0237,-1.0229,-1.0224,-1.022,-0.9853,-0.9849,0,0,0,0,0,0,-1.0678,-1.0655,-1.0461,-1.0453,-1.0593,-1.0502,-1.0487,-1.044,-1.0364,-1.0356,-1.0426,-1.0431,-1.0299,-1.0284,-1.0269,-1.0108,-1.0228,-1.0219,-1.0214,-0.9857,-0.9852,-0.9847,0,0,0,0,0,0,-1.0683,-1.066,-1.0466,-1.0554,-1.053,-1.0493,-1.0439,-1.0435,-1.04,-1.0352,-1.0345,-1.0397,-1.0301,-1.0281,-1.0167,-1.0104,-1.0215,-1.0207,-0.9862,-0.9856,-0.985,-0.9786,0,0,0,0,0,0,-1.0691,-1.0662,-1.0613,-1.0553,-1.0525,-1.0368,-1.0435,-1.043,-1.0385,-1.0391,-1.0323,-1.0315,-1.0303,-1.018,-1.0158,-1.0093,-1.02,-0.9868,-0.9859,-0.9852,-0.9793,-0.9778,-0.9765,0,0,0,0,0,-1.07,-1.0598,-1.061,-1.0586,-1.0463,-1.0364,-1.0348,-1.0339,-1.038,-1.0329,-1.0298,-1.0317,-1.0115,-1.0168,-1.0143,-1.0075,-0.9872,-0.9862,-0.9852,-0.98,-0.9781,-0.9765,0,0,0,0,0,0,-1.0647,-1.059,-1.0603,-1.0478,-1.0426,-1.037,-1.0306,-1.0319,-1.0252,-1.026,-1.0248,-1.0232,-1.0116,-1.0084,-1.0145,-0.9942,-0.9999,-0.9984,-0.9967,-0.9949,-0.9935,-0.9945,-1.0192,0,0,0,0,0,-1.0622,-1.0549,-1.0502,-1.0396,-1.037,-1.0342,-1.0299,-1.0297,-1.0241,-1.0218,-1.0179,-1.0123,-1.0047,-0.9996,-0.9923,-0.979,-0.9775,-0.973,-0.9716,-0.9705,-0.9691,-0.9618,-0.9598,-0.9816,-0.9816,-0.9816,0,0,-1.0567,-1.0526,-1.0481,-1.0385,-1.0344,-1.0267,-1.0323,-1.0239,-1.0181,-1.0204,-1.0095,-1.0065,-1.0,-0.9876,-0.9819,-0.9846,-0.9628,-0.9692,-0.9683,-0.9676,-0.9606,-0.9586,-0.9567,-0.9809,-0.981,-0.9811,0,0,-1.0428,-1.039,-1.0299,-1.0258,-1.0198,-1.018,-1.0158,-1.01,-1.0082,-0.9973,-0.9989,-0.9919,-0.9788,-0.9742,-0.9701,-0.9547,-0.9562,-0.9523,-0.9448,-0.9377,-0.936,-0.9345,-0.929,-0.927,-0.9511,-0.951,-0.951,0,-1.0366,-1.0254,-1.0249,-1.0164,-1.0121,-1.0143,-1.0049,-1.0009,-0.9926,-0.9895,-0.9927,-0.9764,-0.9722,-0.9588,-0.955,-0.9517,-0.949,-0.953,-0.9364,-0.9348,-0.9334,-0.9281,-0.926,-0.9506,-0.9507,-0.9507,-0.9507,0,-1.0181,-1.0102,-1.0035,-0.9959,-0.9908,-0.9819,-0.98,-0.9748,-0.9751,-0.973,-0.9618,-0.9569,-0.9487,-0.9455,-0.9455,-0.932,-0.9339,-0.9367,-0.9423,-0.9309,-0.9259,-0.9239,-0.95,-0.9502,-0.9503,-0.9504,0,0,-1.0003,-0.9928,-0.9903,-0.9869,-0.9804,-0.9742,-0.9654,-0.9577,-0.9533,-0.9475,-0.94,-0.929,-0.9317,-0.927,-0.9266,-0.9204,-0.9084,-0.9239,-0.9238,-0.9212,-0.8933,-0.8911,-0.8888,-0.9095,-0.9091,-0.9088,-0.8938,0,-0.9858,-0.9706,-0.97,-0.956,-0.9487,-0.9507,-0.943,-0.9381,-0.9359,-0.9292,-0.9267,-0.9189,-0.923,-0.9203,-0.9142,-0.9112,-0.9028,-0.9123,-0.9022,-0.9019,-0.9037,-0.8862,-0.8839,-0.87,-0.8918,-0.8915,-0.8913,0,-0.9668,-0.9609,-0.9462,-0.941,-0.9379,-0.931,-0.9239,-0.9176,-0.912,-0.9109,-0.9059,-0.9063,-0.8971,-0.9032,-0.8904,-0.8968,-0.8927,-0.8906,-0.8901,-0.889,-0.8958,-0.8846,-0.8655,-0.8635,-0.8882,-0.8884,-0.8887,0,-0.9553,-0.9436,-0.9333,-0.9303,-0.9239,-0.919,-0.9161,-0.911,-0.9064,-0.9002,-0.8972,-0.8899,-0.8858,-0.88,-0.8784,-0.883,-0.8657,-0.8716,-0.8643,-0.8643,-0.8604,-0.8607,-0.8404,-0.8579,-0.8579,-0.858,-0.858,0,-0.9391,-0.9301,-0.9281,-0.9217,-0.9116,-0.911,-0.901,-0.8983,-0.8938,-0.8868,-0.888,-0.8815,-0.8798,-0.8729,-0.8715,-0.8612,-0.8593,-0.858,-0.8577,-0.8578,-0.858,-0.855,-0.8559,-0.8574,-0.8575,-0.8576,-0.8577,0,-0.9245,-0.9228,-0.9118,-0.9068,-0.9053,-0.898,-0.8936,-0.8874,-0.8855,-0.8767,-0.8746,-0.8715,-0.8634,-0.8613,-0.8515,-0.8506,-0.8384,-0.839,-0.8403,-0.8403,-0.8331,-0.8338,-0.8101,-0.807,-0.8266,-0.8264,-0.8263,0,-0.9142,-0.9074,-0.9017,-0.8973,-0.8943,-0.8871,-0.8826,-0.8817,-0.8769,-0.8702,-0.8648,-0.8569,-0.8505,-0.8375,-0.8341,-0.8267,-0.8271,-0.8194,-0.826,-0.8264,-0.827,-0.8274,-0.8267,-0.8181,-0.8179,-0.8177,-0.8175,0,-0.8962,-0.8958,-0.8894,-0.8827,-0.8773,-0.8719,-0.8667,-0.8629,-0.8613,-0.8558,-0.8478,-0.8428,-0.8331,-0.8252,-0.8177,-0.8144,-0.8156,-0.8155,-0.8134,-0.8134,-0.8145,-0.8138,-0.8368,-0.816,-0.8162,-0.8163,-0.8164,-0.8164,-0.8834,-0.8775,-0.8727,-0.8654,-0.8615,-0.8567,-0.8507,-0.8482,-0.8415,-0.8337,-0.8335,-0.8247,-0.8194,-0.8095,-0.8058,-0.7988,-0.8011,-0.7981,-0.7973,-0.7965,-0.7959,-0.8157,-0.7974,-0.7975,-0.7975,-0.7975,-0.7976,0,-0.8655,-0.8626,-0.856,-0.8489,-0.8432,-0.8452,-0.8396,-0.8346,-0.8269,-0.822,-0.8158,-0.8065,-0.7989,-0.7952,-0.7876,-0.7827,-0.783,-0.7807,-0.781,-0.7802,-0.7943,-0.7969,-0.7805,-0.7805,-0.7805,-0.7805,-0.7805,-0.7805,-0.8555,-0.8456,-0.8446,-0.8327,-0.8297,-0.8213,-0.8179,-0.8134,-0.8095,-0.7992,-0.793,-0.7907,-0.7862,-0.7784,-0.7714,-0.7705,-0.7676,-0.765,-0.7643,-0.7775,-0.7792,-0.7809,-0.7833,-0.7644,-0.7643,-0.7508,-0.7507,-0.7506]}]]